Voltar ao catálogo

FENGYUN 1C DEB

AtivoPO
NORAD 37695·DEBRIS·🇨🇳 China

Lançado May 10, 1999 de Taiyuan Satellite Launch Center

Loading…

Próximas Passagens (próximas 24 horas)

TLE

EnvelhecendoSource: Space-Track

Época: Sep 3, 2026, 06:43 UTC

1 37695U 99025ELL 26246.28007049  .00000728  00000-0  45378-3 0  9992
2 37695  98.1883 254.7237 0458799 272.2949  96.2706 13.65771539928620

Acompanhe FENGYUN 1C DEB em tempo real com AllMySat

Download on the App Store